Tracking 18852 objects as of 24-Nov-2017
HD Live streaming from Space Station
objects crossing your sky now

FENGYUN 1C DEB

Track FENGYUN 1C DEB now!
10-day predictions


NORAD ID: 31239
Int'l Code: 1999-025BLV
Perigee: 840.5 km
Apogee: 915.5 km
Inclination: 98.9 °
Period: 102.4 minutes
Semi major axis: 7249 km
RCS: 0.0092 m2 (small)
Launch date: May 10, 1999
Source: People's Republic of China (PRC)
Launch site: Taiyaun Space Center, China (TSC)

Note: This is SATELLITE DEBRIS
aabbcc
Your satellite tracking list
Your tracking list is empty




NASA's NSSDC Master Catalog

Two Line Element Set (TLE):
1 31239U 99025BLV 17327.60047734 +.00000188 +00000-0 +13828-3 0  9996
2 31239 098.9116 358.8887 0051705 199.3741 288.4048 14.06647569546369
Source of the keplerian elements: AFSPC